YAOGAN-30 AC (48863 NORAD) Tracking and Keplerian Element Data

This shows tracking and keplerian element data for the satellite.

Feedback or suggestion? Click here.




ElementValue
Catalog48863
NameYAOGAN-30 AC
Epoch Orbit648
Epoch Day214.92729942
Epoch Year2021
RAAN66.7542
Inclination34.9998
Eccentricity0.0005998
Argument of Perigee264.4176
Mean Anonmoly95.5849
Mean Motion14.89965394
Decay Rate2.87E-06
L11 48863U 21055D 21214.92729942 .00000287 00000-0 31975-4 0 9992
L22 48863 34.9998 66.7542 0005998 264.4176 95.5849 14.89965394 6480

Live tracking and technical data element details for YAOGAN-30 AC (NORAD 48863). YAOGAN-30 AC can be tracked NOW for your location showing map with azimuth and elevation plus other details from your city location.

Track the satellite on the map from your city or location and see movement details for azimuth, elevation, latitude, longitude, range, height, and movement on the map or in text.







IsCatalogInMostPopularTable: catalog: 48863, numindb: 6
Update: records affected: 1



GetName: 48863 YAOGAN-30 AC

Hit Count: updated at: Wed, 04 Aug 2021 00:03:11 GMT